Previsão horária em Abashevo

Hoje, 19 Janeiro, Terça-feira

Tempo Temperatura Precipitação Vento Pressão Humidade
00:00 -21°C° 0.3 mm 3 m/s 759 mmHg 96%
01:00 -22°C° 0.1 mm 3 m/s 758 mmHg 96%
02:00 -22°C° 0.1 mm 3 m/s 758 mmHg 96%
03:00 -22°C° 0 mm 3 m/s 758 mmHg 95%
04:00 -23°C° 0 mm 3 m/s 758 mmHg 96%
05:00 -23°C° 0 mm 3 m/s 758 mmHg 97%
06:00 -24°C° 0 mm 3 m/s 758 mmHg 97%
07:00 -24°C° 0 mm 3 m/s 758 mmHg 97%
08:00 -23°C° 0 mm 2 m/s 758 mmHg 96%
09:00 -24°C° 0 mm 2 m/s 758 mmHg 96%
10:00 -23°C° 0 mm 2 m/s 758 mmHg 95%
11:00 -21°C° 0 mm 2 m/s 758 mmHg 94%
12:00 -20°C° 0 mm 2 m/s 758 mmHg 93%
13:00 -21°C° 0 mm 2 m/s 758 mmHg 93%
14:00 -21°C° 0 mm 2 m/s 758 mmHg 93%
15:00 -20°C° 0 mm 1 m/s 758 mmHg 93%
16:00 -23°C° 0 mm 2 m/s 758 mmHg 93%
17:00 -24°C° 0 mm 2 m/s 758 mmHg 93%
18:00 -24°C° 0 mm 2 m/s 759 mmHg 93%
19:00 -25°C° 0 mm 2 m/s 759 mmHg 93%
20:00 -25°C° 0 mm 2 m/s 759 mmHg 94%
21:00 -25°C° 0 mm 2 m/s 759 mmHg 94%
22:00 -21°C° 0 mm 1 m/s 759 mmHg 94%
23:00 -21°C° 0 mm 1 m/s 759 mmHg 93%

Amanhã, 20 Janeiro, Quarta-feira

Tempo Temperatura Precipitação Vento Pressão Humidade
00:00 -21°C° 0 mm 1 m/s 759 mmHg 93%
01:00 -21°C° 0 mm 1 m/s 759 mmHg 93%
02:00 -22°C° 0 mm 1 m/s 760 mmHg 93%
03:00 -22°C° 0 mm 1 m/s 760 mmHg 94%
04:00 -22°C° 0 mm 1 m/s 760 mmHg 94%
05:00 -26°C° 0 mm 2 m/s 760 mmHg 95%
06:00 -26°C° 0 mm 2 m/s 760 mmHg 95%
07:00 -26°C° 0 mm 2 m/s 760 mmHg 95%
08:00 -26°C° 0 mm 2 m/s 760 mmHg 95%
09:00 -26°C° 0 mm 2 m/s 761 mmHg 95%
10:00 -25°C° 0 mm 2 m/s 761 mmHg 95%
11:00 -24°C° 0 mm 2 m/s 761 mmHg 94%
12:00 -23°C° 0 mm 2 m/s 761 mmHg 94%
13:00 -23°C° 0 mm 2 m/s 761 mmHg 94%
14:00 -24°C° 0 mm 2 m/s 761 mmHg 94%
15:00 -24°C° 0 mm 2 m/s 761 mmHg 94%
16:00 -24°C° 0 mm 2 m/s 761 mmHg 94%
17:00 -25°C° 0 mm 2 m/s 762 mmHg 94%
18:00 -25°C° 0 mm 2 m/s 762 mmHg 95%
19:00 -25°C° 0 mm 2 m/s 762 mmHg 94%
20:00 -25°C° 0 mm 2 m/s 763 mmHg 94%
21:00 -25°C° 0 mm 2 m/s 763 mmHg 93%
22:00 -25°C° 0 mm 2 m/s 763 mmHg 93%
23:00 -25°C° 0 mm 2 m/s 763 mmHg 93%

Depois de amanhã, 21 Janeiro, Quinta-feira

Tempo Temperatura Precipitação Vento Pressão Humidade
00:00 -24°C° 0 mm 2 m/s 763 mmHg 92%
01:00 -24°C° 0 mm 2 m/s 763 mmHg 93%
02:00 -25°C° 0 mm 2 m/s 764 mmHg 93%
03:00 -25°C° 0 mm 2 m/s 764 mmHg 93%
04:00 -25°C° 0 mm 2 m/s 764 mmHg 94%
05:00 -25°C° 0 mm 2 m/s 764 mmHg 94%
06:00 -25°C° 0 mm 2 m/s 764 mmHg 94%
07:00 -24°C° 0 mm 2 m/s 764 mmHg 94%
08:00 -24°C° 0 mm 2 m/s 765 mmHg 94%
09:00 -24°C° 0 mm 3 m/s 765 mmHg 95%
10:00 -23°C° 0 mm 3 m/s 765 mmHg 94%
11:00 -22°C° 0 mm 3 m/s 764 mmHg 93%
12:00 -19°C° 0 mm 3 m/s 764 mmHg 93%
13:00 -19°C° 0 mm 3 m/s 764 mmHg 93%
14:00 -19°C° 0 mm 3 m/s 764 mmHg 93%
15:00 -19°C° 0 mm 3 m/s 764 mmHg 93%
16:00 -20°C° 0 mm 4 m/s 764 mmHg 93%
17:00 -19°C° 0 mm 4 m/s 764 mmHg 93%
18:00 -19°C° 0 mm 4 m/s 764 mmHg 93%
19:00 -20°C° 0 mm 5 m/s 763 mmHg 92%
20:00 -20°C° 0 mm 5 m/s 762 mmHg 91%
21:00 -21°C° 0 mm 6 m/s 762 mmHg 90%
22:00 -20°C° 0.1 mm 6 m/s 761 mmHg 90%
23:00 -20°C° 0.1 mm 7 m/s 760 mmHg 90%

22 Janeiro, Sexta-feira

Tempo Temperatura Precipitação Vento Pressão Humidade
00:00 -19°C° 0.1 mm 8 m/s 759 mmHg 91%
01:00 -18°C° 0.6 mm 7 m/s 759 mmHg 91%
02:00 -17°C° 0.6 mm 7 m/s 759 mmHg 92%
03:00 -15°C° 0.6 mm 7 m/s 758 mmHg 93%
04:00 -14°C° 0.4 mm 6 m/s 758 mmHg 93%
05:00 -14°C° 0.4 mm 6 m/s 757 mmHg 94%
06:00 -12°C° 0.4 mm 5 m/s 757 mmHg 94%
07:00 -11°C° 0.4 mm 5 m/s 757 mmHg 94%
08:00 -10°C° 0.4 mm 4 m/s 757 mmHg 95%
09:00 -9°C° 0.4 mm 4 m/s 757 mmHg 95%
10:00 -7°C° 0.3 mm 4 m/s 757 mmHg 95%
11:00 -5°C° 0.3 mm 4 m/s 757 mmHg 95%
12:00 -4°C° 0.3 mm 4 m/s 757 mmHg 96%
13:00 -3°C° 0.2 mm 4 m/s 757 mmHg 97%
14:00 -1°C° 0.2 mm 3 m/s 757 mmHg 97%
15:00 -1°C° 0.2 mm 3 m/s 757 mmHg 98%
16:00 0°C° 0.1 mm 3 m/s 757 mmHg 98%
17:00 0°C° 0.1 mm 3 m/s 757 mmHg 98%
18:00 0°C° 0.1 mm 3 m/s 757 mmHg 99%
19:00 -1°C° 0.2 mm 4 m/s 757 mmHg 99%
20:00 -1°C° 0.2 mm 4 m/s 758 mmHg 99%
21:00 -1°C° 0.2 mm 5 m/s 758 mmHg 99%
22:00 -1°C° 0.1 mm 5 m/s 758 mmHg 98%
23:00 -1°C° 0.1 mm 4 m/s 758 mmHg 97%

23 Janeiro, Sábado

Tempo Temperatura Precipitação Vento Pressão Humidade
00:00 -1°C° 0.1 mm 4 m/s 759 mmHg 96%
01:00 -1°C° 0 mm 4 m/s 759 mmHg 95%
02:00 -1°C° 0 mm 4 m/s 759 mmHg 94%
03:00 0°C° 0 mm 3 m/s 759 mmHg 93%
04:00 0°C° 0 mm 3 m/s 759 mmHg 93%
05:00 -1°C° 0 mm 3 m/s 760 mmHg 93%
06:00 -2°C° 0 mm 4 m/s 760 mmHg 93%
07:00 -2°C° 0 mm 4 m/s 760 mmHg 95%
08:00 -1°C° 0 mm 4 m/s 760 mmHg 96%
09:00 -1°C° 0 mm 4 m/s 761 mmHg 97%
10:00 -1°C° 0 mm 4 m/s 761 mmHg 98%
11:00 -1°C° 0 mm 5 m/s 761 mmHg 98%
12:00 -1°C° 0 mm 5 m/s 761 mmHg 99%
13:00 -1°C° 0 mm 5 m/s 761 mmHg 99%
14:00 -1°C° 0 mm 5 m/s 761 mmHg 99%
15:00 -1°C° 0 mm 5 m/s 761 mmHg 99%
16:00 -1°C° 0 mm 5 m/s 761 mmHg 98%
17:00 -1°C° 0 mm 5 m/s 761 mmHg 98%
18:00 -1°C° 0 mm 4 m/s 761 mmHg 97%
19:00 -1°C° 0 mm 5 m/s 762 mmHg 97%
20:00 -1°C° 0 mm 5 m/s 762 mmHg 97%
21:00 -1°C° 0 mm 5 m/s 762 mmHg 97%
22:00 -1°C° 0 mm 5 m/s 762 mmHg 97%
23:00 -1°C° 0 mm 5 m/s 762 mmHg 96%

24 Janeiro, Domingo

Tempo Temperatura Precipitação Vento Pressão Humidade
00:00 -1°C° 0 mm 5 m/s 762 mmHg 96%
01:00 -1°C° 0 mm 5 m/s 762 mmHg 95%
02:00 -1°C° 0 mm 5 m/s 762 mmHg 95%
03:00 -1°C° 0 mm 5 m/s 762 mmHg 95%
04:00 -1°C° 0 mm 5 m/s 762 mmHg 94%
05:00 -1°C° 0 mm 5 m/s 762 mmHg 93%
06:00 -1°C° 0 mm 5 m/s 762 mmHg 92%
07:00 -1°C° 0 mm 5 m/s 762 mmHg 92%
08:00 -2°C° 0 mm 5 m/s 762 mmHg 93%
09:00 -2°C° 0 mm 5 m/s 763 mmHg 93%
10:00 -2°C° 0.1 mm 5 m/s 763 mmHg 94%
11:00 -1°C° 0.1 mm 5 m/s 763 mmHg 95%
12:00 -1°C° 0.1 mm 5 m/s 763 mmHg 96%
13:00 -2°C° 0 mm 6 m/s 763 mmHg 95%
14:00 -2°C° 0 mm 6 m/s 763 mmHg 93%
15:00 -2°C° 0 mm 6 m/s 763 mmHg 92%
16:00 -2°C° 0.1 mm 6 m/s 763 mmHg 91%
17:00 -2°C° 0.1 mm 6 m/s 764 mmHg 91%
18:00 -2°C° 0.1 mm 6 m/s 764 mmHg 90%
19:00 -3°C° 0.1 mm 6 m/s 764 mmHg 91%
20:00 -3°C° 0.1 mm 6 m/s 764 mmHg 91%
21:00 -3°C° 0.1 mm 6 m/s 764 mmHg 91%
22:00 -2°C° 0 mm 5 m/s 764 mmHg 92%
23:00 -4°C° 0 mm 5 m/s 764 mmHg 93%
Mostrar mais